| time (UTC) | temp F | wind direction | speed MPH | gust MPH | rain 1hr in | rain 24hr in | rain mn in | humidity % | barometer mb |
| 20260505000112 | 62 | 219 | 0.0 | 4.0 | 0.00 | 0.00 | 0.00 | 51 | 1006.1 |
| 20260504235558 | 62 | 219 | 0.0 | 3.0 | 0.00 | 0.00 | 0.00 | 50 | 1006.0 |
| 20260504235058 | 63 | 206 | 0.0 | 2.0 | 0.00 | 0.00 | 0.00 | 50 | 1005.9 |
| 20260504234558 | 63 | 206 | 0.0 | 4.0 | 0.00 | 0.00 | 0.00 | 50 | 1005.9 |
| 20260504234057 | 64 | 225 | 0.0 | 4.0 | 0.00 | 0.00 | 0.00 | 46 | 1005.8 |
| 20260504233557 | 64 | 196 | 0.0 | 5.0 | 0.00 | 0.00 | 0.00 | 47 | 1005.7 |
| 20260504233100 | 65 | 182 | 0.0 | 5.0 | 0.00 | 0.00 | 0.00 | 45 | 1005.6 |
| 20260504232557 | 65 | 209 | 0.0 | 4.0 | 0.00 | 0.00 | 0.00 | 44 | 1005.6 |
| 20260504232058 | 66 | 181 | 1.0 | 6.0 | 0.00 | 0.00 | 0.00 | 41 | 1005.5 |
| 20260504231557 | 66 | 182 | 2.0 | 6.0 | 0.00 | 0.00 | 0.00 | 42 | 1005.5 |
| 20260504231057 | 67 | 194 | 1.0 | 5.0 | 0.00 | 0.00 | 0.00 | 39 | 1005.4 |
| 20260504230557 | 67 | 200 | 1.0 | 5.0 | 0.00 | 0.00 | 0.00 | 40 | 1005.3 |
| 20260504230057 | 68 | 315 | 0.0 | 6.0 | 0.00 | 0.00 | 0.00 | 38 | 1005.2 |
| 20260504225557 | 68 | 234 | 2.0 | 6.0 | 0.00 | 0.00 | 0.00 | 39 | 1005.1 |
| 20260504225100 | 68 | 236 | 1.0 | 5.0 | 0.00 | 0.00 | 0.00 | 37 | 1005.2 |
| 20260504224600 | 69 | 286 | 1.0 | 5.0 | 0.00 | 0.00 | 0.00 | 36 | 1005.1 |
| 20260504224057 | 69 | 216 | 2.0 | 7.0 | 0.00 | 0.00 | 0.00 | 34 | 1004.9 |
| 20260504223556 | 69 | 236 | 3.0 | 7.0 | 0.00 | 0.00 | 0.00 | 34 | 1004.9 |
| 20260504223057 | 69 | 240 | 1.0 | 5.0 | 0.00 | 0.00 | 0.00 | 37 | 1004.9 |
| 20260504222556 | 70 | 229 | 2.0 | 10.0 | 0.00 | 0.00 | 0.00 | 37 | 1004.9 |
| 20260504222054 | 70 | 355 | 2.0 | 10.0 | 0.00 | 0.00 | 0.00 | 34 | 1005.0 |
| 20260504221555 | 70 | 334 | 3.0 | 9.0 | 0.00 | 0.00 | 0.00 | 33 | 1005.0 |
| 20260504221054 | 71 | 288 | 4.0 | 10.0 | 0.00 | 0.00 | 0.00 | 34 | 1005.0 |
| 20260504220554 | 70 | 90 | 4.0 | 10.0 | 0.00 | 0.00 | 0.00 | 35 | 1004.9 |
| 20260504220112 | 70 | 218 | 1.0 | 7.0 | 0.00 | 0.00 | 0.00 | 33 | 1005.0 |
| 20260504215553 | 70 | 311 | 2.0 | 8.0 | 0.00 | 0.00 | 0.00 | 33 | 1005.0 |
| 20260504215152 | 70 | 182 | 4.0 | 8.0 | 0.00 | 0.00 | 0.00 | 33 | 1005.1 |
| 20260504214555 | 71 | 184 | 3.0 | 7.0 | 0.00 | 0.00 | 0.00 | 34 | 1005.1 |
| 20260504214052 | 71 | 171 | 2.0 | 11.0 | 0.00 | 0.00 | 0.00 | 32 | 1005.0 |
| 20260504213552 | 71 | 233 | 4.0 | 11.0 | 0.00 | 0.00 | 0.00 | 33 | 1005.0 |
| 20260504213059 | 71 | 296 | 4.0 | 8.0 | 0.00 | 0.00 | 0.00 | 33 | 1004.9 |
| 20260504212552 | 71 | 148 | 0.0 | 6.0 | 0.00 | 0.00 | 0.00 | 34 | 1005.0 |
| 20260504212051 | 71 | 232 | 1.0 | 7.0 | 0.00 | 0.00 | 0.00 | 34 | 1005.0 |
| 20260504211555 | 71 | 269 | 2.0 | 7.0 | 0.00 | 0.00 | 0.00 | 33 | 1005.0 |
| 20260504211053 | 71 | 205 | 1.0 | 10.0 | 0.00 | 0.00 | 0.00 | 32 | 1005.0 |
| 20260504210552 | 72 | 210 | 4.0 | 11.0 | 0.00 | 0.00 | 0.00 | 33 | 1005.0 |
| 20260504210052 | 72 | 219 | 3.0 | 11.0 | 0.00 | 0.00 | 0.00 | 33 | 1004.9 |
| 20260504205552 | 71 | 192 | 4.0 | 12.0 | 0.00 | 0.00 | 0.00 | 33 | 1005.0 |
| 20260504205049 | 71 | 82 | 3.0 | 10.0 | 0.00 | 0.00 | 0.00 | 33 | 1004.9 |
| 20260504204549 | 71 | 232 | 1.0 | 10.0 | 0.00 | 0.00 | 0.00 | 32 | 1005.0 |
| 20260504204049 | 72 | 297 | 2.0 | 9.0 | 0.00 | 0.00 | 0.00 | 32 | 1005.0 |
| 20260504203550 | 71 | 170 | 3.0 | 8.0 | 0.00 | 0.00 | 0.00 | 34 | 1005.0 |
| 20260504203049 | 71 | 214 | 1.0 | 10.0 | 0.00 | 0.00 | 0.00 | 34 | 1005.1 |
| 20260504202549 | 71 | 193 | 5.0 | 10.0 | 0.00 | 0.00 | 0.00 | 31 | 1005.2 |
| 20260504202049 | 71 | 199 | 1.0 | 7.0 | 0.00 | 0.00 | 0.00 | 32 | 1005.1 |
| 20260504201548 | 71 | 215 | 4.0 | 8.0 | 0.00 | 0.00 | 0.00 | 32 | 1005.0 |
| 20260504201048 | 71 | 179 | 3.0 | 10.0 | 0.00 | 0.00 | 0.00 | 32 | 1005.1 |
| 20260504200548 | 72 | 237 | 2.0 | 12.0 | 0.00 | 0.00 | 0.00 | 31 | 1005.1 |
| 20260504200054 | 72 | 195 | 6.0 | 12.0 | 0.00 | 0.00 | 0.00 | 33 | 1004.9 |
| 20260504195546 | 72 | 219 | 4.0 | 11.0 | 0.00 | 0.00 | 0.00 | 33 | 1005.0 |
| 20260504195045 | 72 | 159 | 4.0 | 11.0 | 0.00 | 0.00 | 0.00 | 32 | 1005.1 |
| 20260504194547 | 72 | 232 | 4.0 | 14.0 | 0.00 | 0.00 | 0.00 | 32 | 1005.2 |
| 20260504194047 | 73 | 216 | 6.0 | 14.0 | 0.00 | 0.00 | 0.00 | 32 | 1005.2 |
| 20260504193546 | 73 | 198 | 3.0 | 10.0 | 0.00 | 0.00 | 0.00 | 32 | 1005.4 |
| 20260504193044 | 73 | 280 | 4.0 | 14.0 | 0.00 | 0.00 | 0.00 | 31 | 1005.2 |
| 20260504192544 | 73 | 201 | 5.0 | 14.0 | 0.00 | 0.00 | 0.00 | 29 | 1005.2 |
| 20260504192042 | 74 | 168 | 5.0 | 11.0 | 0.00 | 0.00 | 0.00 | 33 | 1005.2 |
| 20260504191553 | 73 | 258 | 3.0 | 13.0 | 0.00 | 0.00 | 0.00 | 31 | 1005.1 |
| 20260504191042 | 73 | 163 | 6.0 | 13.0 | 0.00 | 0.00 | 0.00 | 30 | 1005.2 |
| 20260504190541 | 73 | 196 | 3.0 | 10.0 | 0.00 | 0.00 | 0.00 | 28 | 1005.1 |
| 20260504190047 | 73 | 95 | 3.0 | 11.0 | 0.00 | 0.00 | 0.00 | 29 | 1005.2 |
| 20260504185543 | 72 | 221 | 5.0 | 11.0 | 0.00 | 0.00 | 0.00 | 31 | 1005.2 |
| 20260504185039 | 73 | 312 | 6.0 | 11.0 | 0.00 | 0.00 | 0.00 | 29 | 1005.3 |
| 20260504184552 | 74 | 256 | 3.0 | 8.0 | 0.00 | 0.00 | 0.00 | 31 | 1005.4 |
| 20260504184039 | 74 | 257 | 3.0 | 8.0 | 0.00 | 0.00 | 0.00 | 32 | 1005.5 |
| 20260504183540 | 74 | 196 | 4.0 | 9.0 | 0.00 | 0.00 | 0.00 | 28 | 1005.4 |
| 20260504183047 | 73 | 242 | 3.0 | 9.0 | 0.00 | 0.00 | 0.00 | 33 | 1005.3 |
| 20260504182537 | 74 | 100 | 2.0 | 12.0 | 0.00 | 0.00 | 0.00 | 31 | 1005.5 |
| 20260504182040 | 74 | 296 | 6.0 | 12.0 | 0.00 | 0.00 | 0.00 | 28 | 1005.6 |
| 20260504181544 | 73 | 236 | 2.0 | 10.0 | 0.00 | 0.00 | 0.00 | 30 | 1005.7 |
| 20260504181036 | 72 | 201 | 5.0 | 11.0 | 0.00 | 0.00 | 0.00 | 29 | 1005.8 |
| 20260504180536 | 73 | 202 | 5.0 | 11.0 | 0.00 | 0.00 | 0.00 | 32 | 1005.9 |
| 20260504180134 | 74 | 246 | 5.0 | 11.0 | 0.00 | 0.00 | 0.00 | 30 | 1005.9 |
| 20260504175533 | 73 | 288 | 3.0 | 8.0 | 0.00 | 0.00 | 0.00 | 31 | 1005.8 |
| 20260504175035 | 72 | 279 | 4.0 | 10.0 | 0.00 | 0.00 | 0.00 | 29 | 1005.8 |
| 20260504174532 | 74 | 209 | 4.0 | 10.0 | 0.00 | 0.00 | 0.00 | 30 | 1005.8 |
| 20260504174031 | 73 | 199 | 3.0 | 9.0 | 0.00 | 0.00 | 0.00 | 36 | 1005.7 |
| 20260504173531 | 72 | 235 | 2.0 | 7.0 | 0.00 | 0.00 | 0.00 | 39 | 1005.8 |
| 20260504173029 | 72 | 5 | 3.0 | 7.0 | 0.00 | 0.00 | 0.00 | 32 | 1006.0 |
| 20260504172530 | 72 | 284 | 3.0 | 8.0 | 0.00 | 0.00 | 0.00 | 32 | 1006.1 |
| 20260504172028 | 72 | 336 | 2.0 | 8.0 | 0.00 | 0.00 | 0.00 | 32 | 1006.1 |
| 20260504171527 | 72 | 236 | 2.0 | 16.0 | 0.00 | 0.00 | 0.00 | 32 | 1006.1 |
| 20260504171028 | 71 | 286 | 4.0 | 16.0 | 0.00 | 0.00 | 0.00 | 32 | 1006.1 |
| 20260504170527 | 72 | 229 | 3.0 | 11.0 | 0.00 | 0.00 | 0.00 | 30 | 1006.1 |
| 20260504151005 | 66 | 236 | 3.0 | 10.0 | 0.00 | 0.00 | 0.00 | 38 | 1007.1 |
| 20260504150506 | 66 | 213 | 4.0 | 10.0 | 0.00 | 0.00 | 0.00 | 40 | 1007.2 |
| 20260504141051 | 63 | 340 | 5.0 | 9.0 | 0.00 | 0.00 | 0.00 | 41 | 1008.3 |
| 20260504140550 | 63 | 273 | 4.0 | 8.0 | 0.00 | 0.00 | 0.00 | 41 | 1008.1 |
| 20260504130536 | 58 | 176 | 4.0 | 9.0 | 0.00 | 0.00 | 0.00 | 48 | 1008.7 |
| 20260504110504 | 42 | 263 | 0.0 | 1.0 | 0.00 | 0.00 | 0.00 | 85 | 1009.3 |
| 20260504100555 | 40 | 274 | 0.0 | 0.0 | 0.00 | 0.00 | 0.00 | 84 | 1009.4 |
| 20260504081547 | 40 | 274 | 0.0 | 1.0 | 0.00 | 0.00 | 0.00 | 84 | 1009.3 |
| 20260504081049 | 40 | 274 | 0.0 | 1.0 | 0.00 | 0.00 | 0.00 | 84 | 1009.3 |
| 20260504080548 | 40 | 274 | 0.0 | 0.0 | 0.00 | 0.00 | 0.00 | 84 | 1009.3 |
| 20260504050526 | 37 | 265 | 1.0 | 2.0 | 0.00 | 0.00 | 0.00 | 85 | 1009.3 |
| 20260504050024 | 37 | 265 | 0.0 | 2.0 | 0.00 | 0.00 | 0.00 | 85 | 1009.3 |
| 20260504045523 | 36 | 265 | 1.0 | 2.0 | 0.00 | 0.00 | 0.00 | 85 | 1009.4 |
| 20260504045026 | 36 | 265 | 1.0 | 2.0 | 0.00 | 0.00 | 0.00 | 86 | 1009.4 |
| 20260504044530 | 36 | 265 | 0.0 | 2.0 | 0.00 | 0.00 | 0.00 | 86 | 1009.5 |
| 20260504044022 | 36 | 265 | 0.0 | 2.0 | 0.00 | 0.00 | 0.00 | 86 | 1009.4 |
| 20260504043522 | 36 | 265 | 0.0 | 2.0 | 0.00 | 0.00 | 0.00 | 85 | 1009.4 |
| 20260504043025 | 36 | 265 | 0.0 | 2.0 | 0.00 | 0.00 | 0.00 | 85 | 1009.4 |
| 20260504042522 | 36 | 265 | 0.0 | 2.0 | 0.00 | 0.00 | 0.00 | 84 | 1009.4 |
| 20260504042020 | 36 | 265 | 1.0 | 2.0 | 0.00 | 0.00 | 0.00 | 84 | 1009.4 |
| 20260504041522 | 36 | 265 | 0.0 | 2.0 | 0.00 | 0.00 | 0.00 | 84 | 1009.3 |
| 20260504041017 | 36 | 265 | 1.0 | 2.0 | 0.00 | 0.00 | 0.00 | 83 | 1009.2 |
| 20260504040517 | 36 | 265 | 0.0 | 2.0 | 0.00 | 0.00 | 0.00 | 83 | 1009.2 |
| 20260504040016 | 37 | 265 | 0.0 | 2.0 | 0.00 | 0.01 | 0.00 | 82 | 1009.2 |
| 20260504035519 | 37 | 265 | 0.0 | 2.0 | 0.00 | 0.01 | 0.00 | 82 | 1009.2 |
| 20260504035020 | 37 | 265 | 1.0 | 2.0 | 0.00 | 0.01 | 0.00 | 82 | 1009.2 |
| 20260504034515 | 37 | 265 | 0.0 | 2.0 | 0.00 | 0.01 | 0.00 | 82 | 1009.2 |
| 20260504034014 | 37 | 265 | 0.0 | 2.0 | 0.00 | 0.01 | 0.00 | 82 | 1009.2 |
| 20260504033514 | 37 | 267 | 1.0 | 2.0 | 0.00 | 0.01 | 0.00 | 81 | 1009.1 |
| 20260504033013 | 37 | 267 | 1.0 | 2.0 | 0.00 | 0.01 | 0.00 | 81 | 1009.1 |
| 20260504032513 | 37 | 266 | 1.0 | 2.0 | 0.00 | 0.01 | 0.00 | 81 | 1009.1 |
| 20260504032011 | 37 | 266 | 1.0 | 2.0 | 0.00 | 0.01 | 0.00 | 80 | 1009.0 |
| 20260504031510 | 38 | 266 | 1.0 | 2.0 | 0.00 | 0.01 | 0.00 | 80 | 1009.0 |
| 20260504031009 | 38 | 271 | 1.0 | 2.0 | 0.00 | 0.01 | 0.00 | 80 | 1009.1 |
| 20260504030508 | 38 | 271 | 1.0 | 2.0 | 0.00 | 0.01 | 0.00 | 79 | 1009.1 |
| 20260504030027 | 38 | 270 | 1.0 | 2.0 | 0.00 | 0.01 | 0.00 | 79 | 1009.1 |
| 20260504025512 | 38 | 270 | 0.0 | 2.0 | 0.00 | 0.01 | 0.00 | 79 | 1009.1 |
| 20260504025006 | 38 | 270 | 0.0 | 2.0 | 0.00 | 0.01 | 0.00 | 79 | 1009.0 |
| 20260504024508 | 38 | 270 | 1.0 | 2.0 | 0.00 | 0.01 | 0.00 | 78 | 1009.0 |
| 20260504024007 | 38 | 270 | 0.0 | 2.0 | 0.00 | 0.01 | 0.00 | 79 | 1009.0 |
| 20260504023509 | 38 | 270 | 0.0 | 2.0 | 0.00 | 0.01 | 0.00 | 78 | 1009.0 |
| 20260504023005 | 38 | 274 | 1.0 | 2.0 | 0.00 | 0.01 | 0.00 | 78 | 1008.9 |
| 20260504022504 | 38 | 278 | 1.0 | 2.0 | 0.00 | 0.01 | 0.00 | 78 | 1008.9 |
| 20260504022003 | 39 | 278 | 1.0 | 2.0 | 0.00 | 0.01 | 0.00 | 77 | 1008.9 |
| 20260504021502 | 39 | 280 | 1.0 | 2.0 | 0.00 | 0.01 | 0.00 | 77 | 1009.0 |
| 20260504021001 | 39 | 284 | 0.0 | 2.0 | 0.00 | 0.01 | 0.00 | 77 | 1008.9 |
| 20260504020503 | 39 | 286 | 1.0 | 2.0 | 0.00 | 0.01 | 0.00 | 77 | 1008.9 |
| 20260504015600 | 40 | 317 | 0.0 | 2.0 | 0.00 | 0.01 | 0.00 | 75 | 1008.7 |
| 20260504015103 | 40 | 317 | 0.0 | 2.0 | 0.00 | 0.01 | 0.00 | 74 | 1008.7 |
| 20260504014558 | 40 | 317 | 0.0 | 2.0 | 0.00 | 0.01 | 0.00 | 74 | 1008.7 |
| 20260504014057 | 40 | 317 | 0.0 | 2.0 | 0.00 | 0.01 | 0.00 | 75 | 1008.6 |
| 20260504013556 | 40 | 317 | 0.0 | 1.0 | 0.00 | 0.01 | 0.00 | 74 | 1008.6 |
| 20260504013109 | 40 | 317 | 0.0 | 1.0 | 0.00 | 0.01 | 0.00 | 73 | 1008.6 |
| 20260504012557 | 41 | 317 | 0.0 | 1.0 | 0.00 | 0.01 | 0.00 | 73 | 1008.6 |
| 20260504012057 | 41 | 317 | 0.0 | 1.0 | 0.00 | 0.01 | 0.00 | 71 | 1008.5 |
| 20260504011557 | 41 | 317 | 0.0 | 1.0 | 0.00 | 0.01 | 0.00 | 71 | 1008.4 |
| 20260504011056 | 41 | 317 | 0.0 | 2.0 | 0.00 | 0.01 | 0.00 | 72 | 1008.5 |
| 20260504010556 | 41 | 317 | 0.0 | 2.0 | 0.00 | 0.01 | 0.00 | 70 | 1008.4 |
| 20260504010112 | 42 | 340 | 0.0 | 0.0 | 0.00 | 0.01 | 0.00 | 70 | 1008.4 |
| 20260504005559 | 42 | 340 | 0.0 | 0.0 | 0.00 | 0.01 | 0.00 | 69 | 1008.2 |
| 20260504005055 | 42 | 26 | 0.0 | 0.0 | 0.00 | 0.01 | 0.00 | 70 | 1008.2 |
| 20260504004621 | 42 | 26 | 0.0 | 0.0 | 0.00 | 0.01 | 0.00 | 71 | 1008.1 |
| 20260504004055 | 43 | 26 | 0.0 | 0.0 | 0.00 | 0.01 | 0.00 | 70 | 1008.1 |
| 20260504003559 | 43 | 26 | 0.0 | 0.0 | 0.00 | 0.01 | 0.00 | 70 | 1008.0 |
| 20260504003055 | 43 | 26 | 0.0 | 0.0 | 0.00 | 0.01 | 0.00 | 65 | 1008.0 |
| 20260504002555 | 44 | 26 | 0.0 | 0.0 | 0.00 | 0.01 | 0.00 | 67 | 1007.9 |
| 20260504002056 | 44 | 26 | 0.0 | 0.0 | 0.00 | 0.01 | 0.00 | 67 | 1007.8 |
| 20260504001604 | 45 | 26 | 0.0 | 0.0 | 0.00 | 0.01 | 0.00 | 66 | 1007.9 |
| 20260504001055 | 45 | 26 | 0.0 | 0.0 | 0.00 | 0.01 | 0.00 | 63 | 1007.8 |
| 20260504000554 | 46 | 26 | 0.0 | 0.0 | 0.00 | 0.01 | 0.00 | 62 | 1007.8 |